Theta_e
281 282 282 282 281 282 282 282 282 282 282 283 284 283 284 284 285 285 285 284 284 284 283 283 283 283 283 282 282 282 282 281 281 281 281 281 281 281 281 280 280 280 280 280 280 280 279 280 279 280 279 280 279 279 279 280 280 279 279 280 280 280
281 281 281 281 281 282 282 282 283 283 283 284 284 284 284 284 284 284 283 283 283 282 282 282 282 282 282 281 281 281 280 280 280 280 280 280 280 280 280 279 279 279 279 279 279 278 278 278 278 278 278 278 278 278 278 279 279 278 278 279 280 280
281 282 282 282 283 283 283 283 283 283 283 283 283 283 283 282 282 283 282 282 281 281 281 281 281 280 280 280 280 280 279 280 280 280 280 280 279 279 279 278 278 278 278 278 278 277 277 277 277 278 277 277 277 277 278 278 278 277 277 278 278 279
282 282 282 282 283 283 282 283 282 282 282 283 283 283 283 282 282 282 282 281 281 280 280 279 280 280 280 279 279 279 279 279 279 279 279 278 278 278 278 277 277 277 277 276 276 276 276 276 276 276 276 276 276 276 277 276 276 276 276 277 276 277
282 282 282 282 282 283 282 282 283 283 283 282 282 282 282 282 282 281 281 281 280 279 279 279 279 279 279 279 278 278 278 278 278 278 277 276 276 276 276 276 276 275 275 275 275 275 275 275 275 275 275 275 275 274 275 275 275 275 275 275 275 276
282 282 282 282 282 282 282 282 282 282 282 282 282 282 282 281 281 281 280 279 279 278 278 278 278 278 278 277 277 277 277 277 276 276 275 275 275 274 275 274 274 274 274 273 274 274 274 274 274 273 274 273 273 273 273 274 274 274 274 274 275 275
281 282 282 282 282 282 282 282 282 282 282 282 283 283 282 281 281 281 280 279 278 278 277 277 277 277 277 276 276 276 276 275 275 275 274 274 273 273 273 273 273 273 273 272 273 273 272 272 272 272 272 272 273 273 272 273 273 273 274 274 274 275
282 282 281 282 282 282 283 283 283 282 282 282 282 281 280 280 280 280 279 278 278 277 277 277 276 276 276 276 275 275 274 274 273 273 273 273 272 272 272 272 272 272 272 272 272 272 271 271 271 271 271 271 271 272 272 273 273 273 273 274 274 274
281 282 282 282 283 283 283 283 282 281 280 280 279 279 279 279 279 278 278 277 277 276 276 276 276 275 275 275 274 274 273 272 272 271 271 271 271 271 270 271 271 271 271 271 271 270 270 270 270 270 270 270 271 272 272 273 273 273 273 273 273 273
281 282 282 282 283 283 282 281 281 280 280 279 279 278 278 278 278 278 277 276 276 276 275 275 275 274 274 274 273 272 271 271 271 270 270 270 269 269 269 269 269 269 270 270 269 269 269 269 269 269 270 270 271 272 272 272 272 272 272 272 273 273
282 282 282 282 282 282 281 280 279 279 279 279 278 278 278 277 277 277 276 276 275 275 275 275 274 274 273 272 271 270 270 270 269 269 269 269 268 268 268 268 268 268 268 268 268 268 268 268 268 268 269 271 272 273 272 272 272 272 272 272 272 273
283 282 282 282 282 282 280 279 279 279 278 277 277 277 276 276 276 276 275 274 274 274 274 273 273 272 271 271 270 269 269 268 268 267 267 267 267 267 267 267 267 267 267 266 267 267 267 267 267 268 271 273 273 273 273 272 272 272 272 272 271 272
283 283 282 281 281 281 280 280 280 279 278 277 276 276 275 275 274 274 274 273 273 273 272 272 271 270 269 269 268 267 267 267 266 266 266 265 266 266 266 266 266 266 266 266 266 265 266 266 266 269 272 273 274 273 272 272 272 272 272 271 271 270
283 282 281 281 281 280 280 280 279 278 277 276 276 275 274 274 274 273 272 272 272 272 271 270 269 268 268 267 266 266 265 265 264 264 264 264 264 265 265 265 265 265 265 265 265 265 265 265 267 270 272 273 274 275 273 273 272 271 271 271 270 270
282 282 282 281 281 281 281 280 278 278 277 276 275 273 273 272 272 271 271 271 270 269 269 268 267 267 266 265 265 264 264 263 263 263 263 263 264 264 264 264 264 264 264 264 264 264 264 264 266 269 271 273 274 275 274 272 272 271 271 270 270 269
282 282 281 282 282 281 280 280 279 278 276 275 273 272 271 271 270 270 270 269 269 268 267 266 266 265 265 264 264 263 263 262 262 263 263 263 263 263 263 263 263 263 263 263 263 263 263 263 265 269 271 273 273 274 274 272 271 271 270 269 269 268
281 281 280 280 280 279 279 278 277 274 273 272 272 271 270 270 269 269 269 268 267 267 266 266 265 264 264 263 263 262 262 262 262 262 263 262 262 262 262 262 261 261 262 262 262 262 262 262 267 270 271 272 273 273 273 271 270 269 268 268 268 268
280 280 280 280 279 278 278 277 274 273 272 271 271 269 269 268 268 268 267 266 266 266 266 264 264 263 263 263 262 261 261 262 262 261 262 261 262 262 262 262 261 261 260 261 261 261 261 262 266 269 270 271 272 273 270 269 268 268 268 268 268 268
280 279 278 278 278 277 276 274 273 272 270 269 268 268 268 267 267 267 267 266 265 265 265 265 263 262 262 262 261 260 260 261 261 261 261 260 261 261 260 260 260 260 260 260 260 260 260 261 264 268 270 271 272 271 268 268 268 267 267 267 268 268
278 278 278 276 276 276 274 272 272 270 269 268 267 267 267 267 267 267 266 265 264 264 264 264 262 262 261 260 259 260 261 260 260 260 260 260 259 259 259 260 259 259 259 259 259 259 259 260 263 267 269 270 271 270 268 267 267 267 267 267 268 269
277 276 275 275 274 272 271 271 270 270 269 268 267 267 267 267 267 266 265 265 264 264 263 262 262 262 260 260 260 259 259 259 259 260 259 259 259 259 259 259 258 258 259 259 259 261 261 260 262 265 267 269 270 269 268 268 267 267 267 267 267 269
273 273 273 273 274 271 270 270 270 270 269 267 267 266 267 267 266 266 265 264 263 263 262 261 260 260 259 260 259 259 259 259 258 258 259 258 258 258 258 258 258 257 258 259 259 259 260 260 260 261 267 269 270 271 269 268 267 266 266 267 267 267
275 275 274 275 272 269 269 269 270 269 268 267 266 267 267 266 265 264 264 263 262 261 260 260 259 258 258 259 258 259 258 258 259 258 257 257 257 257 257 257 257 257 257 258 259 259 259 259 260 261 267 269 270 271 271 268 268 268 267 267 268 268
273 272 271 270 269 268 268 269 270 269 267 266 267 267 265 264 263 263 262 262 261 260 258 257 257 257 256 256 256 256 256 257 257 257 256 257 256 255 255 256 256 257 257 258 259 259 259 260 262 261 265 268 270 271 272 270 269 270 269 269 269 270
273 273 272 269 268 268 268 269 269 267 266 267 268 265 264 263 262 262 261 260 259 258 256 256 255 256 255 254 254 254 255 255 254 254 254 254 254 255 255 255 256 256 256 257 258 259 259 259 260 264 264 268 270 272 272 273 272 274 272 270 269 270
274 272 269 267 267 267 268 268 269 266 266 267 265 263 262 262 261 260 259 258 257 256 255 254 254 254 253 254 254 253 253 253 253 254 254 254 255 255 255 256 256 256 256 256 257 258 260 260 261 263 267 267 270 272 273 273 274 274 271 271 271 271
273 271 267 266 265 266 266 267 269 265 266 266 262 263 261 260 258 258 256 256 254 254 253 253 253 252 252 252 253 253 254 254 253 254 253 253 254 254 255 255 254 255 255 256 256 258 260 262 264 265 266 269 270 272 272 273 274 274 275 272 271 272
268 268 267 265 264 265 264 265 267 266 267 263 262 261 260 258 257 256 256 254 253 253 252 252 252 251 252 252 253 253 253 253 254 254 254 253 254 254 254 254 255 255 255 256 258 260 262 263 264 265 266 268 269 269 271 272 273 273 274 274 272 274
268 267 266 265 264 264 263 263 264 265 263 261 261 260 258 256 257 256 255 254 254 252 251 252 252 253 252 251 252 252 253 254 253 253 254 254 254 254 254 255 255 256 256 257 260 261 263 264 264 265 266 267 267 268 269 270 271 273 273 272 271 273
270 268 267 267 265 263 263 262 262 260 260 260 260 258 257 256 256 256 255 253 253 253 252 252 255 255 254 253 252 253 253 253 253 253 254 254 255 254 255 255 256 257 258 259 261 262 262 263 265 266 265 266 267 269 270 271 271 271 271 271 271 271
269 269 267 268 266 263 262 261 260 258 259 260 258 257 257 256 256 255 252 252 250 252 254 253 253 253 253 252 252 253 254 254 254 255 255 256 257 257 257 257 258 259 260 260 260 261 263 264 264 265 269 269 272 270 270 270 271 271 270 270 273 270
270 269 268 268 265 263 262 261 260 258 259 258 257 256 257 256 255 254 253 252 252 252 252 253 252 251 253 252 252 252 253 257 261 260 259 259 263 266 268 267 264 264 265 266 267 267 264 264 265 270 272 272 272 274 274 273 273 272 270 271 271 266
268 268 267 267 263 262 261 261 259 258 258 257 256 256 256 255 255 254 254 253 252 253 253 252 251 252 251 251 252 251 253 253 255 261 264 265 265 266 267 268 269 269 269 267 265 266 269 270 270 271 271 272 273 273 272 272 272 271 270 270 265 260
266 266 267 266 263 262 261 260 259 258 257 257 256 256 255 255 256 255 254 253 253 255 254 253 253 253 252 252 253 251 252 252 252 254 259 262 263 265 266 266 267 267 267 268 267 266 266 268 270 270 271 272 272 272 271 271 270 269 269 268 266 258
268 268 267 265 262 261 260 260 258 257 257 256 255 255 254 254 255 254 253 253 253 254 255 254 253 253 253 251 251 251 251 252 252 252 253 256 260 262 263 264 265 265 266 267 267 268 268 268 269 270 271 271 271 271 270 270 268 267 267 266 260 257
267 266 265 263 261 261 259 259 257 256 256 255 255 255 255 254 254 254 253 253 253 253 253 253 253 253 253 253 253 251 252 252 252 252 252 253 253 255 257 260 262 264 265 265 266 267 267 268 269 269 270 270 270 269 269 268 262 265 265 263 258 257
265 263 262 261 260 259 258 259 256 255 255 254 254 254 253 253 253 252 254 255 254 253 253 253 255 254 252 252 252 252 254 253 253 254 254 253 252 252 252 253 255 259 263 262 263 265 267 267 268 269 269 269 268 268 268 264 257 256 256 257 255 256
263 262 260 259 259 259 258 258 255 255 254 253 253 253 252 252 253 253 253 254 255 254 254 254 253 254 253 252 252 252 252 255 253 253 252 253 253 252 252 252 253 254 258 262 263 264 265 266 267 268 268 267 267 266 264 256 255 255 255 255 256 256
Wind_Speed
7 7 8 7 7 7 7 6 6 5 5 5 7 9 8 8 6 6 5 5 6 5 6 7 7 6 6 5 6 5 6 6 5 5 4 4 5 5 5 5 5 5 5 4 5 5 5 5 5 5 5 6 5 6 5 6 6 6 7 6 5 6
8 8 9 9 9 8 7 7 5 7 6 6 6 5 5 5 6 5 6 5 6 6 6 5 5 6 6 5 6 6 6 5 5 5 6 6 5 5 5 5 5 6 6 5 5 5 5 5 5 5 5 5 5 5 5 6 6 6 6 7 5 5
8 8 8 7 6 5 6 6 7 7 6 7 7 9 7 6 5 6 6 6 6 7 8 6 6 6 5 7 6 6 6 5 5 5 4 4 6 5 5 5 5 6 5 6 6 6 6 7 7 6 6 6 7 6 7 7 7 8 7 7 7 5
8 8 6 5 6 7 8 7 7 7 8 7 7 6 6 8 6 7 6 4 5 8 7 6 5 5 5 7 6 7 6 5 5 4 4 6 5 5 5 5 5 5 5 5 6 6 6 6 6 7 6 7 7 7 5 6 8 8 8 7 8 8
10 10 10 9 9 8 8 8 8 8 8 7 6 7 6 6 6 6 6 6 7 7 6 6 6 6 7 8 6 6 5 5 5 5 5 5 5 5 5 5 5 5 5 5 5 6 6 6 6 6 7 7 8 8 8 7 8 9 9 10 9 9
7 7 9 9 8 9 9 8 8 7 7 7 7 7 7 6 6 6 7 7 7 6 6 6 5 7 6 7 5 6 5 5 5 5 5 5 4 4 4 4 5 4 5 5 5 5 6 6 7 6 6 7 8 8 9 8 8 8 8 9 10 10
10 11 10 9 10 9 8 9 8 8 7 6 6 6 6 6 6 6 6 8 8 5 6 6 5 6 6 6 5 6 5 5 5 5 5 5 5 5 5 5 5 5 6 6 6 7 6 7 7 7 7 7 6 7 8 8 8 8 9 9 9 10
10 9 10 10 10 10 10 9 8 7 6 7 6 7 5 5 5 6 7 6 8 6 6 5 5 6 6 5 5 6 5 5 5 5 5 5 5 5 5 5 5 5 6 6 5 6 6 6 7 7 8 8 7 7 8 8 8 9 9 10 10 10
12 12 12 11 10 10 9 9 8 8 7 7 6 6 7 6 6 6 7 6 7 6 5 5 5 5 5 5 5 5 5 5 5 5 5 5 5 5 5 5 5 5 5 5 5 6 6 6 6 7 7 7 8 8 9 9 9 9 9 9 10 10
10 11 12 12 11 9 8 7 8 9 9 9 7 6 6 6 7 7 7 7 6 5 5 5 5 5 6 5 5 5 5 4 4 5 4 4 5 5 5 5 5 5 4 4 5 5 5 5 6 6 6 7 8 8 9 9 9 10 10 10 10 10
12 13 13 13 11 11 10 8 8 7 7 6 7 7 7 7 8 7 7 6 5 5 5 5 5 5 6 5 5 5 4 5 4 4 4 4 4 4 4 5 5 5 5 4 4 4 4 4 4 4 6 8 9 9 10 10 10 11 11 12 11 10
12 13 13 12 13 12 10 9 9 9 9 8 7 7 6 7 7 9 7 6 5 5 5 5 5 5 5 5 4 4 3 4 4 3 3 3 3 3 4 4 4 4 5 5 5 4 4 4 4 7 14 12 10 11 10 10 11 11 11 12 12 11
11 10 11 12 13 13 12 11 10 8 8 8 8 8 7 7 8 7 7 6 5 5 5 5 5 4 5 4 3 2 3 3 2 2 2 2 3 3 4 4 4 4 5 5 5 5 4 4 5 13 15 15 16 12 11 11 11 11 11 11 11 12
11 12 14 13 13 12 12 11 10 9 9 8 8 8 6 7 8 8 7 6 5 5 5 4 4 4 4 3 2 2 2 2 1 1 1 2 2 3 3 4 4 5 5 4 5 5 5 5 9 14 15 16 16 14 11 11 10 10 10 11 11 11
13 14 13 12 13 13 14 11 10 11 10 10 8 8 7 7 8 8 8 6 5 4 4 4 5 4 3 2 2 2 2 2 1 1 2 2 3 3 3 4 5 5 5 5 6 6 6 6 10 15 16 16 16 16 14 10 10 10 11 11 11 11
8 10 12 13 12 11 8 9 10 8 8 9 9 9 8 9 7 8 8 6 4 4 4 4 3 3 3 2 2 2 2 2 2 2 2 2 3 3 4 4 5 5 5 5 7 7 7 8 11 16 16 16 17 16 15 11 11 10 11 11 11 11
10 8 8 9 9 8 9 7 8 9 9 9 9 7 9 8 8 7 7 7 4 5 3 4 3 3 2 2 2 2 1 1 1 2 2 2 3 4 4 4 5 5 5 6 6 7 8 7 14 16 17 16 17 17 15 9 9 9 10 10 11 12
11 12 10 6 8 8 9 10 9 10 9 7 9 9 8 8 8 8 7 7 5 5 5 5 3 2 2 2 2 2 1 1 2 3 3 3 3 3 3 4 4 5 5 6 6 7 8 8 14 16 16 17 16 18 10 8 9 10 10 10 10 11
5 5 6 7 8 9 9 9 9 10 10 9 8 8 8 8 8 8 7 7 6 5 4 4 3 3 2 2 1 1 1 2 2 3 2 3 4 4 4 4 4 4 5 6 6 8 9 8 11 15 16 17 18 14 9 9 9 9 10 11 11 11
5 6 9 9 8 8 8 10 10 11 11 10 8 9 8 8 8 8 8 8 6 6 5 4 3 3 2 1 1 1 2 1 2 2 2 3 4 5 4 5 5 4 4 6 7 6 9 9 11 16 17 17 18 15 11 9 9 10 11 11 11 11
7 7 7 9 10 8 9 11 11 11 11 10 9 9 9 9 9 9 9 7 6 6 6 4 3 3 2 1 1 1 2 2 3 2 2 3 3 5 4 4 5 5 4 5 7 11 12 10 11 15 17 18 17 14 10 9 9 9 11 11 11 11
9 7 8 11 12 10 11 10 10 10 11 10 9 9 9 10 9 8 7 7 7 6 4 3 3 2 2 2 1 2 3 2 2 3 3 3 3 4 4 4 5 6 5 4 6 6 7 9 8 10 18 17 18 18 12 10 9 10 11 11 11 11
11 13 15 11 11 11 11 10 10 10 9 10 9 11 11 8 8 9 8 7 6 4 4 3 3 3 2 2 2 2 2 2 3 3 3 4 3 3 4 5 5 6 6 5 6 6 6 6 9 10 17 18 18 19 16 9 9 10 11 11 12 11
6 4 3 6 11 11 11 10 12 9 10 9 12 10 7 9 9 8 8 6 4 4 4 4 2 2 2 2 2 2 3 2 2 3 3 3 3 6 6 5 5 6 6 5 5 5 6 7 12 10 14 18 19 19 19 12 11 13 12 10 7 8
9 10 10 9 10 10 10 11 12 10 9 12 11 8 9 8 9 8 6 5 5 4 4 3 3 2 2 2 2 2 3 3 2 3 3 4 4 5 6 6 6 6 7 6 4 4 5 6 7 14 13 17 19 19 19 20 17 21 14 12 12 12
9 9 7 8 9 9 10 13 13 10 11 13 7 8 7 7 6 6 6 5 5 5 3 3 2 2 2 2 2 1 3 3 3 3 3 3 3 4 5 4 4 5 7 7 7 5 6 6 6 10 15 15 18 18 21 21 22 21 14 13 11 12
11 9 7 8 9 9 10 9 13 12 14 8 9 9 10 8 8 7 6 6 5 5 4 2 2 2 2 3 2 2 3 3 2 3 3 3 3 3 5 5 3 5 7 8 8 9 8 8 8 8 10 17 17 20 21 21 22 21 21 14 10 11
4 6 9 7 8 8 7 8 9 16 12 9 9 9 9 9 9 7 7 6 5 5 3 3 2 2 3 3 3 3 3 3 3 3 3 3 3 3 4 5 4 5 6 7 8 8 8 8 6 7 7 8 13 15 20 23 22 20 20 19 16 22
8 10 10 11 9 9 8 8 8 6 6 10 9 9 9 9 8 7 6 6 6 4 4 4 3 3 2 2 2 2 3 3 3 3 3 3 4 4 4 4 4 4 5 6 9 9 9 9 8 7 7 8 10 10 10 11 9 17 19 14 11 14
13 13 12 13 12 11 10 9 9 6 8 8 10 9 9 9 8 8 7 7 6 5 5 5 3 4 3 2 2 3 3 3 3 3 4 4 4 4 5 4 5 5 6 6 7 10 12 8 6 9 10 10 9 8 8 10 10 9 7 8 9 10
13 14 14 14 10 11 11 10 8 7 10 10 9 10 10 9 7 6 5 5 4 5 3 3 3 3 3 2 2 3 4 4 4 4 5 6 6 7 6 6 7 9 10 9 8 8 7 9 10 9 14 14 18 15 12 9 8 10 10 14 21 14
14 14 14 12 9 11 11 10 9 8 8 9 9 10 11 9 7 6 6 5 5 4 4 3 3 3 3 3 3 3 4 7 10 9 7 6 10 15 17 14 8 7 7 6 7 7 7 7 10 18 21 20 20 21 20 18 18 18 14 17 17 12
12 11 11 10 9 11 11 11 10 9 8 9 9 10 9 9 8 6 5 6 5 6 5 4 3 3 3 3 3 2 3 5 7 10 13 13 12 13 14 14 16 16 14 9 6 8 15 16 17 17 17 19 19 19 18 18 17 18 17 16 10 7
10 13 16 11 11 12 11 11 10 11 9 9 9 9 9 9 8 8 7 6 5 5 5 4 3 3 3 3 2 2 2 2 6 10 8 6 8 10 12 13 12 11 11 13 11 9 8 11 14 15 16 17 17 17 17 17 16 16 16 15 12 4
14 13 9 8 10 10 11 11 11 9 9 10 10 9 10 9 8 7 6 6 5 5 5 4 4 3 3 3 2 2 1 2 3 6 10 6 5 8 11 10 10 12 12 13 12 12 11 12 13 15 15 16 15 16 15 15 14 14 15 14 7 4
8 8 8 9 11 12 11 11 10 11 10 10 10 10 9 9 8 7 6 6 6 6 4 4 4 4 3 3 3 2 3 3 3 4 4 7 9 5 5 8 11 12 13 12 13 12 11 12 13 14 14 14 15 15 16 14 9 10 12 11 6 5
8 8 10 11 11 10 11 12 10 9 10 10 10 10 8 8 8 6 6 8 6 5 5 4 3 5 3 3 3 3 3 3 4 4 4 4 6 7 7 7 8 9 12 11 10 12 13 13 13 13 12 14 14 15 16 13 8 8 6 5 3 4
9 8 7 9 10 10 10 9 9 10 10 11 11 11 10 9 8 8 7 6 6 6 4 4 5 4 5 4 4 3 3 3 3 5 4 4 4 5 6 4 5 7 10 16 12 12 13 14 14 12 12 12 13 13 14 7 6 5 6 6 3 4
Wind_Direction
196 195 198 197 199 193 184 168 161 155 149 153 146 144 146 149 143 129 112 106 102 96 94 100 94 89 91 91 89 85 79 72 66 67 70 66 49 47 42 38 37 32 25 26 19 17 14 10 5 359 360 355 352 349 347 342 343 342 336 334 333 325
195 193 192 194 191 187 186 172 160 166 170 162 156 137 134 131 127 126 116 110 110 108 98 78 86 87 92 87 85 74 70 66 58 51 48 45 40 39 35 34 30 22 19 16 15 11 10 9 6 360 359 350 356 347 344 342 340 333 329 324 324 318
196 203 204 199 189 179 170 171 174 177 169 166 167 155 150 136 142 126 120 122 117 110 100 101 99 97 93 84 76 77 67 61 54 50 50 46 43 34 30 30 24 18 14 8 11 9 1 2 358 358 356 352 351 350 342 340 341 335 328 325 318 314
196 201 199 194 181 181 177 184 176 173 179 178 167 152 151 144 143 135 142 129 120 107 111 104 100 96 87 83 72 69 64 55 53 47 47 50 34 30 26 24 18 14 9 9 7 5 0 359 357 355 354 349 347 343 343 337 336 329 322 321 316 318
194 192 191 189 186 183 183 183 182 181 181 172 168 153 159 149 151 143 143 127 113 109 109 105 92 90 80 77 71 71 66 62 55 48 49 40 30 23 28 19 17 11 7 11 6 2 2 358 356 354 352 347 344 339 336 336 333 329 327 325 321 322
186 185 192 189 187 191 192 187 186 183 175 171 166 159 163 163 159 154 127 116 109 115 103 89 89 82 81 82 82 80 71 62 56 46 46 36 24 25 23 22 14 13 8 9 7 3 1 358 353 350 348 341 337 332 329 327 324 318 314 312 312 316
191 196 192 189 193 192 189 191 189 179 180 174 172 171 170 159 163 145 132 127 117 104 96 95 91 94 93 93 87 81 73 62 54 42 36 27 20 19 14 12 12 11 9 6 360 358 358 356 348 343 338 334 329 323 319 316 312 308 305 303 303 304
192 190 192 195 198 191 190 192 183 180 175 185 176 166 165 170 156 146 133 130 114 107 104 108 105 101 99 93 85 79 69 59 48 37 29 26 13 15 12 8 7 3 2 356 356 353 351 348 345 337 330 326 324 316 311 306 304 301 300 299 299 300
198 195 195 199 196 194 193 185 179 178 178 185 193 179 162 161 147 140 129 119 114 118 119 119 108 100 93 88 83 77 66 53 46 35 26 17 13 13 3 3 2 355 354 346 354 348 344 340 336 326 321 318 316 312 307 306 303 300 298 296 297 296
192 194 199 198 198 194 193 186 181 179 181 185 183 171 156 154 138 132 121 118 118 123 123 108 104 95 89 86 81 72 61 53 40 32 19 18 12 9 0 355 350 342 346 344 344 336 332 329 324 319 314 310 310 310 309 308 308 306 304 302 302 303
194 198 198 200 193 194 193 183 186 188 189 176 161 160 164 151 132 124 121 123 122 119 118 113 97 90 87 80 74 61 53 47 37 22 16 14 6 358 347 345 336 332 338 335 332 330 326 319 307 311 313 315 316 315 312 310 306 306 306 306 306 305
200 201 199 195 194 194 187 187 188 187 179 170 161 155 152 136 128 126 127 121 120 121 111 98 89 88 83 74 65 61 51 51 29 18 10 4 350 337 336 330 325 326 329 326 320 322 315 309 297 295 306 310 311 312 308 305 302 302 302 304 304 303
206 201 199 201 196 194 189 191 188 177 173 162 158 153 149 134 127 120 125 118 119 112 99 90 89 87 83 78 77 72 70 54 28 19 353 345 329 325 327 321 320 329 321 318 316 316 312 298 288 300 308 310 309 307 303 301 300 299 298 298 299 300
206 202 204 201 199 193 191 187 181 174 175 158 156 143 134 126 122 122 115 115 114 105 99 101 102 97 98 107 122 114 99 91 69 355 338 323 321 324 317 314 317 318 317 312 310 303 298 295 294 303 307 307 307 305 302 299 297 297 294 294 296 297
207 205 204 199 198 196 197 179 167 181 166 155 148 133 133 127 124 118 113 113 111 109 111 115 114 118 131 143 161 130 109 106 27 340 328 321 319 312 311 315 316 307 309 306 304 301 296 288 295 301 303 303 304 305 305 297 294 293 292 294 295 296
211 211 206 202 202 196 174 169 171 157 147 141 138 137 130 125 118 118 120 122 127 131 129 127 132 142 150 162 143 107 84 74 0 321 306 305 312 307 304 301 299 302 302 303 302 297 294 291 292 300 303 305 305 305 304 296 295 293 292 292 292 291
209 203 198 198 182 163 150 154 140 131 129 143 135 134 128 127 126 123 132 137 145 142 143 144 147 148 156 149 118 94 76 33 312 302 303 307 302 305 301 301 298 291 290 293 293 291 290 284 297 303 305 305 306 306 307 302 297 292 286 286 285 287
196 195 196 163 148 157 162 157 145 142 145 139 137 135 135 135 136 138 136 147 163 160 157 151 147 157 157 140 109 91 20 308 297 299 301 295 288 273 280 281 280 286 287 287 289 289 287 285 300 304 305 307 309 311 311 302 292 288 285 284 284 286
189 172 139 149 155 153 160 147 145 139 139 143 144 140 141 142 150 162 164 167 167 164 160 153 154 164 149 132 106 71 306 301 289 293 291 292 290 294 287 279 280 283 286 286 281 288 287 284 297 304 308 311 312 314 303 297 292 288 287 283 284 285
127 137 149 151 159 160 145 150 147 146 147 150 150 149 154 160 175 167 167 169 165 161 158 159 153 152 147 136 124 231 278 273 280 271 268 286 295 291 280 286 286 273 271 279 282 282 290 287 302 310 311 312 311 310 305 299 291 286 285 284 283 285
142 139 135 147 159 166 154 152 150 150 156 159 162 163 167 185 179 172 174 168 159 156 153 153 149 149 152 152 203 208 246 265 262 272 274 259 263 273 284 282 285 280 271 263 271 286 290 289 299 309 309 309 309 309 301 295 289 287 287 290 288 285
119 131 153 175 182 159 158 155 158 160 161 169 163 172 189 191 180 162 139 142 149 149 149 149 150 153 151 179 213 222 235 259 264 265 278 278 277 282 284 284 281 286 283 276 274 273 280 291 293 302 306 308 307 307 303 296 291 291 290 289 287 279
169 173 185 186 161 158 161 159 154 168 171 166 171 197 195 166 142 142 146 143 143 151 151 148 154 159 188 184 210 230 256 254 271 286 277 281 285 280 288 287 284 282 283 282 280 277 280 276 288 292 304 306 307 307 305 293 278 276 280 276 269 264
184 159 142 156 160 163 164 164 169 172 169 170 199 198 148 146 144 143 145 155 156 156 152 157 162 162 185 201 186 213 249 249 256 270 274 275 284 290 289 289 288 288 287 288 279 276 278 278 284 287 295 301 305 306 304 301 291 289 284 278 268 283
191 196 183 163 164 168 172 168 171 175 173 194 199 148 149 147 145 147 152 154 159 164 167 169 170 188 169 203 205 212 249 263 267 271 271 278 283 284 292 292 294 295 298 295 289 281 273 269 263 281 285 293 303 305 305 303 302 300 298 296 291 277
195 187 170 171 171 174 174 175 176 179 185 204 145 148 144 146 145 147 152 165 170 163 170 182 183 191 200 209 215 220 249 271 269 268 262 264 268 287 291 295 293 299 303 305 304 296 293 282 273 274 282 287 297 304 307 308 306 302 295 288 292 300
191 180 177 184 183 185 185 187 179 177 196 184 148 158 154 149 149 151 168 174 175 176 184 173 194 214 227 231 199 228 246 269 260 275 257 267 279 276 282 289 290 293 298 301 299 308 309 308 304 297 291 299 306 308 308 307 305 303 301 300 290 287
170 177 188 194 193 194 195 201 182 184 199 148 161 154 153 149 152 167 178 179 175 188 165 174 240 236 233 238 214 211 224 232 254 258 276 265 262 258 266 283 291 285 286 286 295 299 298 290 283 287 286 284 302 303 299 298 301 304 305 304 301 299
183 195 194 201 199 196 200 201 214 195 136 163 156 151 148 153 162 168 172 180 183 174 165 178 217 236 234 225 230 224 229 233 224 243 264 254 260 264 259 271 275 281 274 274 296 296 296 300 296 284 299 310 300 286 279 288 279 301 302 293 276 285
196 200 197 207 198 191 193 197 200 176 158 154 157 148 148 156 170 174 181 183 179 181 177 184 206 211 232 237 215 237 257 247 227 232 242 247 250 256 271 257 265 265 272 272 279 294 299 287 295 317 314 302 285 286 300 299 291 289 295 310 323 323
202 205 200 210 188 183 186 194 183 172 167 161 154 153 154 165 168 167 171 174 162 188 182 190 199 202 207 244 253 247 226 243 261 252 258 242 239 243 242 258 258 263 269 262 260 265 285 311 313 308 306 307 314 316 310 311 323 334 339 335 328 329
203 203 206 209 179 183 187 186 181 177 170 157 157 156 161 161 160 165 183 173 178 188 185 196 203 205 205 216 240 264 287 256 255 258 252 252 259 259 260 255 250 253 262 274 284 303 308 305 302 305 311 316 314 315 324 331 332 338 340 336 353 7
209 209 212 203 177 184 187 185 180 176 172 164 162 163 160 156 161 173 176 175 188 187 184 185 194 203 201 213 218 243 262 303 298 290 288 285 281 277 279 287 291 298 302 303 302 304 300 300 303 309 314 314 317 326 332 334 343 346 344 348 8 10
208 209 214 194 181 187 186 185 182 179 171 165 162 161 157 165 164 175 185 181 182 180 177 177 185 193 207 221 225 233 266 297 315 311 303 305 303 299 301 301 303 307 312 310 307 305 303 305 308 314 316 316 325 332 333 339 353 349 348 354 12 353
212 213 205 181 185 183 185 185 185 173 169 165 161 159 160 168 170 168 166 172 168 173 172 179 183 198 197 214 225 244 240 268 278 293 311 315 314 310 305 313 316 317 316 318 318 312 308 313 318 320 318 324 333 335 337 352 5 352 353 357 4 345
210 207 194 188 186 185 181 187 181 175 168 161 160 162 166 167 172 167 165 169 172 166 177 176 188 189 200 202 201 204 226 238 239 262 268 304 321 323 311 306 307 315 325 323 323 320 319 321 324 323 323 336 339 339 344 2 1 355 4 2 345 333
197 197 194 184 179 179 185 190 177 168 161 160 157 158 157 161 161 160 167 163 161 172 175 176 180 185 193 191 200 212 222 237 241 241 259 282 291 302 313 323 317 319 321 325 324 323 326 329 330 326 335 344 344 343 352 3 4 357 348 354 330 318
197 198 178 173 177 180 183 186 169 168 163 159 158 157 159 160 163 165 166 173 169 172 171 175 180 186 192 197 209 202 217 227 229 242 258 267 270 279 293 290 291 295 310 314 320 329 331 331 329 327 346 348 347 352 6 2 349 337 326 323 309 314